Location: Pebble Beach Sunset Acres
(33.0837°N, 96.4508°W)
Time: 20:34:54
(UTC+00:00)

Okean 1 - Pass Details

Date: 02 July 2022
Orbit: 532 x 553 km, 82.5° (Epoch: 11 August)

Event Time Altitude Azimuth Distance (km) Brightness Sun altitude
Rises 10:41:27 0° 336° (NNW) 2,686 7.0 -7.9°
Reaches altitude 10° 10:43:58 10° 321° (NW) 1,788 5.9 -7.5°
Maximum altitude 10:46:59 21° 271° (W) 1,217 4.6 -7.0°
Drops below altitude 10° 10:49:58 10° 220° (SW) 1,775 5.3 -6.4°
Enters shadow 10:51:11 - 211° (SSW) 2,183 5.8 -6.2°
